INTELSAT 32E (IS-32E) (41945 NORAD) Tracking and Keplerian Element Data

This shows tracking and keplerian element data for the satellite.

Feedback or suggestion? Click here.




ElementValue
Catalog41945
NameINTELSAT 32E (IS-32E)
Epoch Orbit2533
Epoch Day12.78907446
Epoch Year2024
RAAN58.0477
Inclination0.0153
Eccentricity4.94E-05
Argument of Perigee89.4718
Mean Anonmoly205.1277
Mean Motion1.0027088
Decay Rate-2.59E-06
L11 41945U 17007B 24012.78907446 -.00000259 00000+0 00000+0 0 9997
L22 41945 0.0153 58.0477 0000494 89.4718 205.1277 1.00270880 25332



Live tracking and technical data element details for INTELSAT 32E (IS-32E) (NORAD 41945). INTELSAT 32E (IS-32E) can be tracked NOW for your location showing map with azimuth and elevation plus other details from your city location.







IsCatalogInMostPopularTable: catalog: 41945, numindb: 817
Update: records affected: 1



GetName: 41945 INTELSAT 32E (IS-32E)

Hit Count: updated at: Fri, 19 Apr 2024 12:18:09 GMT